Temperature
23 24 24 24 24 24 23 23 23 22 22 21 22 21 21 20 19 20 19 19 19 18 17 17 17 16 16 16 16 16 16 16 16 15 15 15 15 14 14 14 14 14 14 14
24 24 23 23 23 23 23 23 23 22 21 22 22 22 22 20 20 19 19 19 18 18 17 16 16 16 16 16 16 16 16 16 16 15 15 15 14 14 14 14 14 14 14 14
24 23 22 22 22 23 23 23 23 22 21 21 21 22 22 21 20 19 18 18 18 17 17 16 16 16 16 15 15 16 16 15 15 15 15 14 14 14 14 14 14 14 13 13
23 23 22 22 23 23 23 22 22 22 22 22 22 22 23 22 21 20 19 18 18 17 17 16 15 15 15 15 15 15 15 15 15 15 14 14 14 14 14 13 13 13 13 13
23 22 22 22 22 22 22 21 22 22 22 22 22 22 23 22 21 21 20 19 18 17 16 16 15 15 15 15 15 15 15 15 15 14 14 14 14 13 13 13 13 13 13 13
22 22 22 22 22 22 21 22 21 21 22 22 22 22 22 23 22 21 20 19 18 17 16 16 15 15 15 15 15 15 15 15 14 14 14 14 14 13 13 13 13 13 12 12
22 22 22 21 21 21 22 22 22 22 22 22 22 21 22 22 21 21 20 19 18 17 16 16 15 15 15 14 14 15 14 14 14 14 14 13 13 13 13 13 12 12 12 12
21 22 21 21 22 22 22 22 21 21 22 22 21 21 22 21 19 19 18 18 17 17 16 15 15 15 14 14 14 14 14 14 14 14 13 13 13 13 13 12 12 12 12 12
22 21 21 20 21 22 21 22 21 21 21 21 22 22 22 20 19 19 18 17 17 16 16 15 15 14 14 14 14 14 14 14 14 13 13 13 13 12 12 12 12 12 12 11
21 21 21 20 20 20 21 21 21 21 20 20 21 22 22 21 20 19 19 18 17 16 15 15 15 14 14 14 14 13 13 13 13 13 13 13 12 12 12 12 12 11 11 11
21 21 20 20 20 21 20 20 21 21 20 19 20 22 22 21 20 19 18 17 16 16 15 15 14 14 14 13 13 13 13 13 13 12 12 12 12 12 12 12 11 11 11 11
20 21 21 20 20 19 20 21 21 20 20 19 19 21 21 20 19 18 18 17 16 15 15 14 14 13 13 13 13 13 12 12 12 12 12 12 12 11 11 11 11 11 11 10
19 20 20 20 20 19 19 20 20 20 20 19 19 20 20 19 19 18 17 16 15 15 14 14 13 13 13 13 13 12 12 12 12 12 11 11 11 11 11 11 11 11 10 10
18 20 20 20 20 20 19 19 19 19 19 19 19 20 20 19 19 18 16 16 15 14 14 13 13 13 13 12 12 12 12 12 11 11 11 11 11 11 11 11 10 10 10 10
19 19 19 19 19 18 18 19 18 19 19 19 19 19 20 19 18 17 16 15 14 14 13 13 13 12 12 12 12 12 12 11 11 11 11 10 10 10 10 10 10 10 10 9
18 19 18 18 18 18 18 18 18 18 18 19 19 19 20 19 18 17 16 15 14 14 13 13 12 12 12 12 12 12 11 11 11 10 10 10 10 10 10 10 10 9 9 9
18 18 18 18 18 17 18 19 18 18 18 18 18 19 19 18 17 16 16 15 14 14 13 12 12 12 12 12 11 11 11 11 10 10 10 10 9 9 9 9 9 9 9 9
17 17 17 17 17 17 19 18 18 18 18 18 18 18 18 17 16 15 15 14 14 13 13 12 12 12 11 11 11 11 11 10 10 10 10 9 9 9 9 9 9 9 9 8
17 17 17 17 17 18 18 18 17 17 18 18 17 17 16 15 15 15 14 14 13 13 12 12 12 11 11 11 11 10 10 10 10 10 9 9 9 9 9 9 9 8 8 8
15 16 17 16 16 17 18 17 16 17 17 17 16 16 16 15 17 17 14 13 13 12 12 12 11 11 11 11 10 10 10 10 10 10 9 9 9 9 8 8 8 8 8 8
15 15 15 16 16 18 18 15 15 16 17 16 16 15 15 15 16 14 13 12 12 12 11 11 11 10 10 10 10 10 10 9 9 9 9 9 9 8 8 8 8 8 7 7
16 16 16 16 16 16 16 15 16 17 16 15 15 14 14 14 13 12 12 12 11 11 11 10 10 10 10 10 10 9 9 9 9 9 9 8 8 8 8 8 7 7 7 7
16 16 16 16 17 16 15 15 15 14 14 14 14 13 13 12 12 12 11 11 11 11 10 10 10 9 9 9 9 9 9 9 9 8 8 8 8 8 7 7 7 7 7 7
15 14 15 15 16 15 14 13 13 13 13 12 12 12 12 12 11 11 11 11 10 10 10 9 9 9 9 9 9 8 8 8 8 8 8 7 7 7 7 7 7 7 7 6
15 14 14 15 15 14 13 13 12 12 12 12 12 12 11 11 11 11 10 10 10 9 9 9 9 9 8 8 8 8 8 8 8 7 7 7 7 7 7 7 7 7 7 6
14 14 14 15 15 14 14 12 12 11 12 12 12 11 11 11 11 10 10 10 9 9 9 9 9 8 8 8 8 8 8 8 7 7 7 7 7 7 7 6 6 7 6 6
Wind_Speed
2 4 3 3 3 3 3 4 3 1 1 3 5 5 5 4 5 5 5 5 5 4 4 3 3 3 3 3 3 2 2 2 2 2 2 1 1 1 1 2 3 3 3 4
5 3 1 1 2 3 4 5 3 1 1 4 5 7 5 5 6 6 5 5 5 5 4 4 3 3 3 3 3 3 2 2 1 1 1 1 1 1 1 1 2 2 2 3
4 1 2 3 3 4 5 5 4 3 2 4 5 5 5 5 5 5 5 5 5 5 5 4 3 3 3 2 2 2 2 2 2 1 1 2 2 1 1 1 1 2 2 2
2 1 3 4 3 4 3 3 4 4 5 3 4 5 3 5 5 6 7 6 6 6 6 5 4 3 3 2 2 3 3 3 2 2 2 2 1 1 1 1 1 1 1 1
2 2 3 4 2 3 2 1 3 5 6 6 5 6 3 4 6 6 7 7 7 7 6 6 5 4 3 3 3 3 3 2 2 2 2 1 1 0 1 1 1 1 1 1
1 1 1 1 1 2 2 3 3 4 5 6 5 6 4 3 4 4 5 6 7 7 7 6 5 4 3 3 3 3 2 2 2 2 2 2 1 1 1 0 1 1 1 1
3 3 2 1 2 3 4 4 3 4 4 4 1 5 4 1 1 3 4 5 6 7 7 6 6 5 4 3 3 3 3 2 2 2 1 2 1 2 2 1 1 1 1 1
4 4 3 1 3 3 4 5 4 4 5 4 3 5 2 1 1 2 3 4 5 6 6 6 6 5 5 4 4 4 3 3 2 2 2 2 2 2 2 2 2 2 1 1
3 2 2 0 1 3 3 4 3 5 7 7 5 4 3 2 2 3 4 4 5 6 6 6 6 6 5 5 5 5 4 3 3 3 2 2 2 2 2 3 2 2 2 1
3 4 2 1 2 0 3 2 3 4 5 6 7 7 4 3 3 3 4 4 4 5 5 6 6 6 6 5 5 5 4 4 3 3 2 2 2 2 2 3 3 3 3 2
4 5 3 4 5 5 4 4 5 4 5 5 7 4 1 3 3 4 4 5 5 5 5 6 6 6 5 5 5 5 4 4 3 3 2 2 2 2 2 3 3 3 3 3
3 4 6 5 2 3 6 7 7 6 6 6 8 6 1 2 3 4 4 4 5 5 5 5 5 5 5 6 5 5 4 4 3 3 3 2 2 2 3 3 3 4 4 3
3 5 5 4 5 5 5 6 7 7 7 8 9 7 1 2 4 4 5 5 5 5 5 4 5 5 6 6 5 5 5 4 4 3 3 3 3 3 3 3 4 4 4 4
4 6 9 9 6 4 7 8 9 10 9 11 13 14 10 8 7 7 6 5 5 5 5 5 5 5 6 6 6 5 5 5 4 4 4 4 4 4 4 4 4 4 5 5
4 8 9 10 8 8 11 12 12 15 15 14 14 15 15 10 8 7 5 4 4 5 6 6 6 5 6 6 6 5 5 5 5 5 5 4 4 4 4 4 4 4 5 5
5 6 7 9 8 9 13 14 14 15 14 15 16 16 11 9 7 6 6 6 6 7 7 7 6 6 6 6 6 6 6 6 6 6 5 5 5 4 5 5 5 5 5 5
5 6 6 8 6 8 11 11 11 10 11 11 14 12 8 8 7 7 6 6 7 7 7 7 7 6 6 6 6 6 6 6 6 6 6 5 5 5 5 6 6 5 6 6
7 8 6 7 6 10 4 0 5 9 11 11 11 10 8 9 9 8 6 6 7 6 7 7 7 6 6 6 5 5 5 6 7 7 6 6 6 6 6 6 6 6 6 6
8 8 6 6 9 11 6 3 3 6 9 8 9 10 8 8 8 6 4 5 6 6 7 7 6 6 6 6 5 5 5 6 6 7 7 7 7 7 7 7 7 7 7 7
6 8 8 8 8 8 3 1 2 5 8 2 5 8 7 7 8 6 5 5 6 6 6 6 5 6 6 6 5 6 6 7 7 7 7 7 7 7 8 8 8 7 7 7
6 7 11 12 11 8 2 1 2 6 4 4 6 7 6 7 8 7 6 6 6 6 5 5 5 6 6 5 5 7 7 8 7 7 7 7 7 8 8 7 7 6 6 7
7 7 9 8 9 7 1 2 4 6 7 7 7 7 7 8 8 7 7 6 6 6 5 5 5 5 5 5 6 7 7 7 6 6 7 7 8 7 7 7 7 7 7 7
8 8 6 8 7 4 2 5 6 7 8 8 8 8 7 8 8 8 7 7 6 6 5 5 5 5 5 5 6 7 7 6 6 6 7 7 8 7 7 7 7 6 6 6
6 5 7 8 9 8 8 7 8 8 9 9 9 8 8 8 8 8 7 7 7 6 6 5 5 6 6 6 7 7 6 6 6 7 8 7 7 7 7 6 6 6 6 6
8 6 8 12 11 9 8 8 8 9 9 9 8 8 8 8 8 8 8 7 6 6 5 5 5 6 7 7 7 7 6 6 7 7 7 7 7 7 6 6 6 7 7 6
9 10 10 10 9 9 10 10 10 10 10 9 8 8 8 7 8 8 7 7 6 6 6 6 6 6 7 6 7 6 6 6 6 6 6 6 6 6 5 6 6 6 7 7
Wind_Direction
182 197 194 201 233 274 241 242 253 275 248 255 252 257 255 226 220 228 215 206 197 185 158 142 140 140 142 147 146 135 148 142 149 151 154 142 127 101 79 49 38 37 28 21
186 187 147 169 196 217 227 241 256 245 225 266 265 266 254 231 223 226 222 202 194 179 159 140 134 137 145 145 142 135 138 121 132 146 176 166 115 92 80 56 40 32 25 21
219 115 144 187 199 225 236 252 267 284 280 241 268 259 223 210 209 213 216 208 195 187 178 161 151 132 128 141 144 140 139 131 126 135 142 130 121 115 94 76 54 26 23 24
199 155 191 207 222 258 252 271 264 261 267 268 263 284 234 203 209 213 210 203 200 192 186 173 161 143 139 146 145 143 138 131 131 132 130 155 150 131 63 28 39 29 17 13
178 176 206 229 252 257 294 269 240 252 265 271 246 268 259 199 229 226 213 204 201 194 189 183 172 162 156 150 149 146 140 128 131 133 130 158 163 134 91 61 41 12 14 0
188 178 259 270 334 192 162 197 205 228 251 261 256 258 275 230 244 236 206 201 200 196 193 188 180 172 169 158 151 153 154 146 147 155 161 167 179 191 150 49 3 338 346 336
199 179 157 186 175 171 224 259 257 245 239 259 232 257 270 328 281 245 223 204 201 196 193 192 190 185 182 173 168 174 176 176 184 195 203 208 211 221 213 239 279 299 305 316
231 207 164 202 250 237 232 255 270 283 281 285 240 253 274 38 315 243 223 209 204 197 197 199 200 195 194 191 191 195 195 197 206 222 236 244 242 256 252 252 257 257 266 280
250 223 123 355 295 254 226 234 290 288 288 279 256 255 260 216 238 227 221 212 205 202 204 208 208 205 203 202 203 206 206 207 214 225 235 248 249 259 259 256 254 255 269 274
264 248 194 184 197 344 277 232 234 255 281 276 270 261 260 245 242 235 233 229 220 212 214 216 213 210 208 210 209 209 215 215 217 221 230 241 250 255 266 257 252 258 265 273
244 245 213 206 225 234 205 218 240 251 260 276 283 278 344 281 277 256 253 244 237 232 229 223 218 213 209 209 207 209 213 217 217 220 228 236 253 252 256 254 251 257 261 263
228 249 250 238 233 275 245 245 240 253 257 256 277 280 63 298 294 277 268 256 244 235 233 226 220 213 208 208 208 212 215 217 219 223 230 235 248 246 247 259 257 256 261 260
207 237 252 225 201 201 230 236 241 256 265 256 262 271 138 309 307 293 274 261 248 241 239 231 223 216 212 212 213 217 219 219 219 223 231 238 244 246 248 259 257 253 256 257
235 242 251 265 288 265 250 242 238 242 254 259 257 274 283 292 294 292 278 263 253 244 242 242 236 225 219 220 220 219 219 213 215 224 234 242 248 254 256 263 257 252 253 255
232 251 254 265 272 265 262 257 246 245 253 263 271 274 283 287 287 286 275 252 250 252 250 243 236 236 232 229 226 223 220 216 216 224 235 246 252 255 257 262 261 254 251 257
232 251 257 260 256 261 264 261 252 250 254 258 268 275 285 290 286 282 271 250 244 245 249 250 245 242 240 237 232 227 223 222 223 229 236 245 249 250 254 259 258 257 256 258
218 236 253 264 269 274 260 251 239 242 243 251 264 276 291 291 282 276 275 266 259 255 253 253 253 250 249 243 237 238 235 228 228 233 238 242 249 252 254 258 258 254 254 258
227 230 246 266 267 253 265 208 245 250 255 252 260 275 281 288 290 285 274 268 266 263 260 259 262 260 254 248 240 241 243 238 233 235 240 241 246 253 255 258 258 255 256 253
225 223 235 247 260 267 262 233 232 254 264 256 259 273 284 298 291 278 289 284 279 272 270 269 265 263 254 245 237 237 243 241 239 239 241 242 245 250 252 254 255 255 255 254
208 223 234 240 254 261 269 54 262 259 262 261 267 279 285 282 282 292 315 302 293 287 282 278 269 257 249 243 235 235 239 243 242 244 245 243 243 246 248 252 253 255 253 254
198 212 227 239 248 260 293 106 197 246 295 333 290 278 269 271 290 305 306 299 294 290 283 274 262 253 250 244 236 239 242 247 252 254 252 248 244 246 248 252 253 254 253 254
219 217 223 230 240 251 126 172 239 291 317 308 296 282 275 283 297 298 297 294 291 288 279 267 257 257 253 240 236 242 247 253 256 256 255 252 250 248 247 251 251 250 250 249
228 231 238 232 251 304 260 267 294 307 300 303 301 296 283 282 288 290 289 286 283 281 275 265 258 259 258 249 243 246 250 253 254 251 251 251 250 249 249 249 248 248 247 249
233 239 244 253 259 274 276 280 291 297 299 300 296 291 281 278 283 285 283 281 278 275 270 265 260 260 260 256 252 254 255 251 250 247 248 249 248 251 252 250 246 245 246 249
244 226 246 258 270 281 271 276 291 294 293 293 292 288 280 278 279 281 281 279 277 274 268 263 260 262 264 261 257 257 256 251 250 250 251 250 247 249 250 249 249 246 247 249
236 235 243 258 268 270 279 287 285 283 284 288 290 289 284 277 277 278 278 279 276 272 272 269 268 267 267 265 263 260 258 253 248 250 250 250 249 245 245 249 253 246 251 247
Height
1519 1518 1518 1518 1518 1519 1520 1522 1524 1524 1526 1527 1526 1526 1526 1528 1530 1530 1530 1531 1532 1534 1535 1535 1535 1536 1537 1538 1538 1538 1539 1540 1540 1540 1540 1540 1540 1539 1539 1538 1538 1537 1536 1535
1518 1519 1519 1520 1521 1521 1521 1522 1523 1524 1526 1526 1524 1524 1523 1525 1527 1528 1528 1529 1530 1532 1533 1534 1534 1535 1536 1537 1537 1538 1538 1538 1538 1539 1539 1539 1539 1539 1538 1538 1537 1537 1536 1535
1517 1519 1521 1521 1521 1521 1521 1521 1522 1524 1525 1524 1524 1521 1519 1521 1525 1526 1527 1528 1529 1530 1531 1532 1533 1534 1534 1535 1536 1536 1537 1538 1538 1538 1538 1538 1538 1538 1537 1537 1536 1536 1535 1534
1517 1520 1521 1521 1521 1520 1521 1521 1522 1524 1524 1521 1524 1522 1514 1516 1520 1522 1524 1526 1527 1529 1530 1531 1532 1532 1533 1534 1535 1535 1536 1537 1537 1537 1537 1537 1537 1537 1536 1536 1536 1535 1534 1534
1519 1520 1521 1521 1521 1521 1521 1522 1522 1522 1521 1521 1519 1521 1512 1513 1516 1517 1520 1522 1525 1527 1529 1530 1531 1531 1532 1533 1533 1534 1535 1535 1536 1536 1536 1536 1536 1536 1536 1535 1535 1534 1533 1533
1519 1521 1521 1521 1522 1522 1523 1522 1522 1521 1519 1524 1517 1519 1513 1508 1511 1513 1516 1520 1523 1525 1527 1528 1529 1530 1531 1531 1532 1533 1533 1534 1534 1535 1535 1535 1535 1534 1534 1534 1533 1533 1532 1531
1520 1520 1521 1522 1522 1523 1521 1521 1525 1525 1524 1519 1516 1518 1512 1507 1510 1513 1515 1518 1520 1522 1524 1526 1527 1528 1529 1529 1530 1531 1532 1532 1533 1533 1533 1533 1533 1533 1533 1532 1532 1531 1531 1530
1522 1522 1520 1521 1520 1520 1519 1519 1528 1532 1526 1516 1516 1516 1508 1510 1512 1514 1515 1517 1519 1520 1522 1523 1524 1525 1526 1527 1528 1529 1530 1530 1531 1531 1531 1531 1531 1531 1531 1531 1530 1530 1529 1528
1520 1521 1521 1522 1522 1520 1520 1520 1520 1523 1522 1522 1512 1509 1507 1509 1511 1513 1514 1516 1517 1518 1519 1521 1522 1523 1524 1525 1526 1526 1527 1527 1528 1528 1529 1529 1529 1529 1528 1528 1528 1527 1527 1526
1518 1521 1521 1523 1522 1523 1521 1519 1522 1523 1531 1527 1514 1509 1507 1506 1508 1510 1511 1513 1515 1516 1517 1518 1519 1520 1521 1522 1523 1524 1524 1525 1525 1526 1526 1526 1526 1525 1525 1525 1525 1525 1525 1524
1519 1520 1521 1521 1520 1519 1522 1522 1520 1521 1523 1528 1523 1510 1501 1504 1506 1509 1510 1512 1513 1514 1515 1515 1516 1517 1518 1519 1520 1521 1521 1522 1522 1522 1523 1523 1523 1522 1522 1522 1522 1522 1522 1521
1519 1518 1518 1518 1519 1520 1518 1517 1518 1524 1523 1523 1522 1512 1503 1505 1506 1508 1509 1511 1511 1512 1513 1513 1514 1514 1515 1516 1517 1518 1518 1519 1519 1519 1520 1520 1519 1519 1519 1519 1519 1519 1519 1518
1520 1519 1521 1519 1522 1521 1519 1518 1518 1518 1519 1520 1521 1511 1503 1505 1506 1507 1508 1508 1509 1509 1510 1510 1511 1511 1512 1513 1514 1514 1515 1515 1516 1516 1516 1516 1516 1516 1516 1516 1516 1516 1515 1515
1521 1516 1518 1520 1514 1515 1517 1518 1518 1518 1518 1515 1511 1505 1502 1502 1504 1505 1506 1506 1506 1507 1507 1507 1507 1508 1509 1510 1510 1511 1512 1512 1512 1513 1513 1513 1513 1513 1513 1513 1513 1512 1512 1512
1519 1515 1514 1513 1515 1516 1515 1514 1514 1514 1510 1510 1504 1503 1499 1500 1502 1503 1503 1503 1504 1504 1504 1505 1505 1505 1505 1506 1507 1507 1508 1508 1509 1509 1510 1510 1510 1509 1509 1509 1509 1509 1509 1508
1517 1515 1515 1514 1514 1514 1512 1509 1509 1509 1507 1505 1503 1501 1498 1499 1500 1501 1500 1501 1501 1501 1502 1502 1502 1502 1502 1503 1503 1503 1504 1505 1505 1506 1506 1506 1506 1506 1505 1505 1506 1505 1505 1504
1515 1515 1516 1511 1511 1513 1508 1501 1502 1503 1501 1502 1500 1497 1497 1497 1498 1498 1498 1498 1498 1499 1499 1499 1499 1499 1499 1499 1499 1500 1501 1501 1501 1502 1502 1502 1502 1502 1502 1502 1501 1501 1500 1500
1514 1514 1514 1512 1513 1514 1497 1497 1498 1499 1498 1497 1496 1495 1496 1496 1495 1495 1495 1495 1495 1495 1495 1495 1496 1496 1496 1496 1496 1496 1497 1497 1497 1497 1498 1498 1498 1498 1497 1497 1497 1496 1496 1496
1513 1512 1512 1511 1509 1500 1495 1496 1498 1498 1495 1494 1494 1494 1494 1494 1493 1492 1492 1492 1492 1492 1492 1492 1492 1492 1492 1492 1492 1492 1492 1493 1493 1493 1493 1493 1493 1493 1493 1492 1492 1492 1491 1491
1513 1511 1510 1509 1510 1503 1493 1495 1497 1498 1493 1491 1492 1492 1492 1492 1489 1487 1489 1489 1488 1488 1488 1488 1488 1488 1488 1488 1488 1487 1487 1488 1488 1488 1488 1488 1488 1488 1488 1487 1487 1487 1487 1486
1510 1510 1509 1506 1504 1493 1492 1496 1497 1498 1491 1491 1491 1490 1490 1489 1488 1488 1487 1486 1485 1485 1484 1484 1484 1483 1483 1483 1483 1483 1483 1483 1483 1483 1483 1483 1483 1483 1483 1482 1482 1482 1481 1481
1501 1502 1502 1501 1502 1497 1493 1495 1494 1491 1490 1490 1489 1488 1488 1487 1486 1485 1484 1483 1482 1481 1481 1480 1480 1479 1479 1479 1479 1478 1478 1478 1478 1478 1478 1478 1478 1478 1478 1477 1477 1477 1477 1476
1497 1495 1493 1494 1492 1490 1492 1492 1492 1491 1489 1488 1487 1486 1485 1484 1483 1482 1481 1480 1478 1478 1477 1476 1476 1475 1474 1474 1474 1474 1473 1474 1473 1473 1473 1473 1473 1473 1473 1473 1472 1472 1472 1471
1494 1496 1494 1492 1488 1489 1490 1490 1489 1489 1487 1486 1485 1483 1482 1480 1479 1478 1477 1476 1475 1474 1473 1472 1471 1470 1469 1469 1469 1469 1468 1468 1468 1468 1468 1468 1468 1468 1468 1467 1467 1467 1466 1466
1490 1492 1490 1487 1486 1487 1486 1486 1486 1485 1483 1482 1481 1480 1478 1477 1475 1474 1473 1472 1471 1470 1469 1468 1467 1466 1465 1464 1464 1463 1463 1463 1463 1463 1463 1463 1463 1463 1462 1462 1462 1461 1461 1461
1486 1486 1486 1482 1483 1484 1482 1483 1482 1481 1479 1478 1477 1475 1474 1473 1471 1470 1469 1468 1467 1466 1465 1464 1463 1461 1460 1459 1458 1458 1457 1457 1457 1457 1458 1458 1458 1458 1457 1457 1456 1456 1456 1455